timestamp,surface_pressure_avg,surface_temp_avg,battery_voltage,lat,long
2022-03-03 00:09:00+00:00,377.0662,0.9,12.09,47.84626,-54.09684
2022-03-03 00:19:00+00:00,366.3063,0.9,12.09,47.84626,-54.09684
2022-03-03 00:29:00+00:00,359.9696,0.9,12.09,47.84626,-54.09684
2022-03-03 00:39:00+00:00,359.9128,0.9,12.09,47.84626,-54.09684
2022-03-03 00:49:00+00:00,360.7446,0.9,12.09,47.84626,-54.09684
2022-03-03 00:59:00+00:00,353.7363,0.89,12.09,47.84626,-54.09684
2022-03-03 01:09:00+00:00,347.9429,0.9,12.09,47.84626,-54.09684
2022-03-03 01:19:00+00:00,348.6429,0.9,12.09,47.84626,-54.09684
2022-03-03 01:29:00+00:00,342.0496,0.89,12.09,47.84626,-54.09684
2022-03-03 01:39:00+00:00,335.3663,0.89,12.09,47.84626,-54.09684
2022-03-03 01:49:00+00:00,326.7513,0.89,12.09,47.84626,-54.09684
2022-03-03 01:59:00+00:00,323.9696,0.9,12.09,47.84626,-54.09684
2022-03-03 02:09:00+00:00,315.2263,0.9,12.09,47.84626,-54.09684
2022-03-03 02:19:00+00:00,309.928,0.9,12.09,47.84626,-54.09684
2022-03-03 02:29:00+00:00,305.8813,0.9,12.09,47.84626,-54.09684
2022-03-03 02:39:00+00:00,297.8831,0.89,12.09,47.84626,-54.09684
2022-03-03 02:49:00+00:00,285.5897,0.87,12.09,47.84626,-54.09684
2022-03-03 02:59:00+00:00,279.8163,0.87,12.09,47.84626,-54.09684
2022-03-03 03:09:00+00:00,277.7414,0.86,12.09,47.84626,-54.09684
2022-03-03 03:19:01+00:00,267.7964,0.85,12.09,47.84626,-54.09684
2022-03-03 03:29:01+00:00,251.938,0.85,12.09,47.84626,-54.09684
2022-03-03 03:39:01+00:00,240.5531,0.81,12.09,47.84626,-54.09684
2022-03-03 03:49:01+00:00,235.5798,0.8,12.09,47.84626,-54.09684
2022-03-03 03:59:01+00:00,224.3164,0.8,12.09,47.84626,-54.09684
2022-03-03 04:09:01+00:00,213.2748,0.8,12.09,47.84626,-54.09684
2022-03-03 04:19:00+00:00,206.1381,0.8,12.09,47.84626,-54.09684
2022-03-03 04:29:00+00:00,201.4364,0.8,12.09,47.84626,-54.09684
2022-03-03 04:39:00+00:00,197.5814,0.8,12.09,47.84626,-54.09684
2022-03-03 04:49:00+00:00,189.5798,0.8,12.09,47.84626,-54.09684
2022-03-03 04:59:00+00:00,183.3565,0.8,12.09,47.84626,-54.09684
2022-03-03 05:09:00+00:00,181.6465,0.8,12.09,47.84626,-54.09684
2022-03-03 05:19:00+00:00,176.7865,0.8,12.09,47.84626,-54.09684
2022-03-03 05:29:00+00:00,173.0581,0.78,12.09,47.84626,-54.09684
2022-03-03 05:39:00+00:00,171.8831,0.72,12.09,47.84626,-54.09684
2022-03-03 05:49:00+00:00,171.8048,0.7,12.09,47.84626,-54.09684
2022-03-03 05:59:00+00:00,169.6981,0.7,12.09,47.84626,-54.09684
2022-03-03 06:09:00+00:00,172.6381,0.7,12.09,47.84626,-54.09684
2022-03-03 06:19:00+00:00,178.4931,0.7,12.09,47.84626,-54.09684
2022-03-03 06:29:00+00:00,177.7031,0.71,12.09,47.84626,-54.09684
2022-03-03 06:39:00+00:00,176.0482,0.7,12.09,47.84626,-54.09684
2022-03-03 06:49:00+00:00,178.1348,0.7,12.09,47.84626,-54.09684
2022-03-03 06:59:00+00:00,182.2465,0.7,12.09,47.84626,-54.09684
2022-03-03 07:09:00+00:00,190.2881,0.7,12.09,47.84626,-54.09684
2022-03-03 07:19:00+00:00,197.0298,0.7,12.09,47.84626,-54.09684
2022-03-03 07:29:00+00:00,202.2914,0.7,12.09,47.84626,-54.09684
2022-03-03 07:39:00+00:00,207.8648,0.7,12.09,47.84626,-54.09684
2022-03-03 07:49:00+00:00,208.4014,0.7,12.09,47.84626,-54.09684
2022-03-03 07:59:00+00:00,213.7598,0.7,12.09,47.84626,-54.09684
2022-03-03 08:09:00+00:00,223.3347,0.7,12.09,47.84626,-54.09684
2022-03-03 08:19:00+00:00,227.9464,0.73,12.09,47.84626,-54.09684
2022-03-03 08:29:00+00:00,230.8264,0.74,12.09,47.84626,-54.09684
2022-03-03 08:39:00+00:00,239.6381,0.75,12.09,47.84626,-54.09684
2022-03-03 08:49:00+00:00,248.148,0.76,12.09,47.84626,-54.09684
2022-03-03 08:59:00+00:00,250.7381,0.77,12.09,47.84626,-54.09684
2022-03-03 09:09:00+00:00,254.6347,0.76,12.09,47.84626,-54.09684
2022-03-03 09:19:01+00:00,265.4014,0.75,12.09,47.84626,-54.09684
2022-03-03 09:29:01+00:00,269.9648,0.75,12.09,47.84626,-54.09684
2022-03-03 09:39:01+00:00,269.8697,0.7,12.09,47.84626,-54.09684
2022-03-03 09:49:01+00:00,272.0031,0.7,12.09,47.84626,-54.09684
2022-03-03 09:59:01+00:00,281.9747,0.7,12.09,47.84626,-54.09684
2022-03-03 10:09:01+00:00,288.8514,0.7,12.09,47.84626,-54.09684
2022-03-03 10:19:00+00:00,298.4313,0.7,12.09,47.84626,-54.09684
2022-03-03 10:29:00+00:00,311.5897,0.7,12.09,47.84626,-54.09684
2022-03-03 10:39:00+00:00,322.5446,0.7,12.09,47.84626,-54.09684
2022-03-03 10:49:00+00:00,322.9913,0.7,12.09,47.84626,-54.09684
2022-03-03 10:59:00+00:00,333.9529,0.7,12.09,47.84626,-54.09684
2022-03-03 11:09:00+00:00,350.663,0.7,12.09,47.84626,-54.09684
2022-03-03 11:19:00+00:00,356.0262,0.7,12.09,47.84626,-54.09684
2022-03-03 11:29:00+00:00,360.033,0.7,12.09,47.84626,-54.09684
2022-03-03 11:39:00+00:00,371.74800000000016,0.7,12.09,47.84626,-54.09684
2022-03-03 11:49:00+00:00,379.9229,0.7,12.09,47.84626,-54.09684
2022-03-03 11:59:00+00:00,376.5563,0.69,12.09,47.84626,-54.09684
2022-03-03 12:09:00+00:00,376.8896,0.67,12.09,47.84626,-54.09684
2022-03-03 12:19:00+00:00,389.6896,0.68,12.09,47.84626,-54.09684
2022-03-03 12:29:00+00:00,390.2729,0.68,12.09,47.84626,-54.09684
2022-03-03 12:39:00+00:00,384.0346,0.6,12.09,47.84626,-54.09684
2022-03-03 12:49:00+00:00,388.7395,0.61,12.09,47.84626,-54.09684
2022-03-03 12:59:00+00:00,390.6379,0.61,12.09,47.84626,-54.09684
2022-03-03 13:09:00+00:00,380.0196,0.6,12.09,47.84626,-54.09684
2022-03-03 13:19:00+00:00,372.2697,0.6,12.09,47.84626,-54.09684
2022-03-03 13:29:00+00:00,374.8696,0.64,12.09,47.84626,-54.09684
2022-03-03 13:39:00+00:00,369.5096,0.63,12.09,47.84626,-54.09684
2022-03-03 13:49:00+00:00,355.2313,0.65,12.09,47.84626,-54.09684
2022-03-03 13:59:00+00:00,354.2063,0.66,12.09,47.84626,-54.09684
2022-03-03 14:09:00+00:00,354.31800000000015,0.67,12.09,47.84626,-54.09684
2022-03-03 14:19:00+00:00,343.5029,0.66,12.09,47.84626,-54.09684
2022-03-03 14:29:00+00:00,327.7697,0.67,12.09,47.84626,-54.09684
2022-03-03 14:39:00+00:00,324.4096,0.69,12.09,47.84626,-54.09684
2022-03-03 14:49:00+00:00,319.0363,0.69,12.09,47.84626,-54.09684
2022-03-03 14:59:00+00:00,305.6997,0.69,12.09,47.84626,-54.09684
2022-03-03 15:09:00+00:00,295.1364,0.7,12.09,47.84626,-54.09684
2022-03-03 15:19:00+00:00,289.558,0.7,12.09,47.84626,-54.09684
2022-03-03 15:29:00+00:00,278.4514,0.7,12.09,47.84626,-54.09684
2022-03-03 15:39:00+00:00,263.2147,0.7,12.09,47.84626,-54.09684
2022-03-03 15:49:00+00:00,255.2331,0.7,12.09,47.84626,-54.09684
2022-03-03 15:59:00+00:00,248.5964,0.7,12.09,47.84626,-54.09684
2022-03-03 16:09:00+00:00,236.4181,0.71,12.09,47.84626,-54.09684
2022-03-03 16:19:00+00:00,226.4998,0.74,12.09,47.84626,-54.09684
2022-03-03 16:29:00+00:00,224.3882,0.75,12.09,47.84626,-54.09684
2022-03-03 16:39:00+00:00,221.118,0.76,12.09,47.84626,-54.09684
2022-03-03 16:49:00+00:00,207.3865,0.76,12.09,47.84626,-54.09684
2022-03-03 16:59:00+00:00,195.2398,0.77,12.09,47.84626,-54.09684
2022-03-03 17:09:00+00:00,191.3148,0.79,12.09,47.84626,-54.09684
2022-03-03 17:19:01+00:00,188.2231,0.8,12.09,47.84626,-54.09684
2022-03-03 17:29:01+00:00,179.8565,0.8,12.09,47.84626,-54.09684
2022-03-03 17:39:01+00:00,169.9982,0.8,12.09,47.84626,-54.09684
2022-03-03 17:49:01+00:00,162.7748,0.8,12.09,47.84626,-54.09684
2022-03-03 17:59:01+00:00,166.5932,0.8,12.09,47.84626,-54.09684
2022-03-03 18:09:01+00:00,175.3615,0.8,12.09,47.84626,-54.09684
2022-03-03 18:19:00+00:00,183.1315,0.8,12.09,47.84626,-54.09684
2022-03-03 18:29:00+00:00,185.3731,0.8,12.09,47.84626,-54.09684
2022-03-03 18:39:00+00:00,188.3498,0.8,12.09,47.84626,-54.09684
2022-03-03 18:49:00+00:00,191.0414,0.8,12.09,47.84626,-54.09684
2022-03-03 18:59:00+00:00,186.2631,0.8,12.09,47.84626,-54.09684
2022-03-03 19:09:00+00:00,191.8564,0.8,12.09,47.84626,-54.09684
2022-03-03 19:19:00+00:00,191.1414,0.8,12.09,47.84626,-54.09684
2022-03-03 19:29:00+00:00,178.7065,0.8,12.09,47.84626,-54.09684
2022-03-03 19:39:00+00:00,181.1148,0.8,12.09,47.84626,-54.09684
2022-03-03 19:49:00+00:00,195.9882,0.8,12.09,47.84626,-54.09684
2022-03-03 19:59:00+00:00,204.2348,0.81,12.09,47.84626,-54.09684
2022-03-03 20:09:00+00:00,210.2381,0.82,12.09,47.84626,-54.09684
2022-03-03 20:19:00+00:00,220.4664,0.83,12.09,47.84626,-54.09684
2022-03-03 20:29:00+00:00,234.5063,0.84,12.09,47.84626,-54.09684
2022-03-03 20:39:00+00:00,243.8131,0.86,12.09,47.84626,-54.09684
2022-03-03 20:49:00+00:00,247.0331,0.87,12.09,47.84626,-54.09684
2022-03-03 20:59:00+00:00,244.7314,0.86,12.09,47.84626,-54.09684
2022-03-03 21:09:00+00:00,250.8714,0.86,12.09,47.84626,-54.09684
2022-03-03 21:19:01+00:00,254.4564,0.88,12.09,47.84626,-54.09684
2022-03-03 21:29:01+00:00,254.9948,0.87,12.09,47.84626,-54.09684
2022-03-03 21:39:01+00:00,256.3181,0.86,12.09,47.84626,-54.09684
2022-03-03 21:49:01+00:00,273.2747,0.88,12.09,47.84626,-54.09684
2022-03-03 21:59:01+00:00,278.6097,0.86,12.09,47.84626,-54.09684
2022-03-03 22:09:01+00:00,282.9631,0.8,12.09,47.84626,-54.09684
2022-03-03 22:19:01+00:00,295.2513,0.8,12.09,47.84626,-54.09684
2022-03-03 22:29:01+00:00,316.2596,0.8,12.09,47.84626,-54.09684
2022-03-03 22:39:01+00:00,313.8247,0.8,12.09,47.84626,-54.09684
2022-03-03 22:49:01+00:00,312.0596,0.8,12.09,47.84626,-54.09684
2022-03-03 22:59:01+00:00,334.718,0.8,12.09,47.84626,-54.09684
2022-03-03 23:09:01+00:00,358.3929,0.8,12.09,47.84626,-54.09684
2022-03-03 23:19:01+00:00,355.3612,0.8,12.09,47.84626,-54.09684
2022-03-03 23:29:01+00:00,356.1197,0.8,12.09,47.84626,-54.09684
2022-03-03 23:39:01+00:00,367.2779,0.8,12.09,47.84626,-54.09684
2022-03-03 23:49:01+00:00,371.3013,0.8,12.09,47.84626,-54.09684
2022-03-03 23:59:01+00:00,367.8845,0.82,12.09,47.84626,-54.09684
